Погода в Явожно

Польша     50°11′17″N   19°16′20″E
темп.,
°C
ветер,
м/с
пор.,
м/с
влажн.,
%
обл.,
%
осадки,
мм/ч
давл.,
гПа
погр.,
м
27 февраля, сб
сб2701:00+5зсз488599 1.6 1029688
04:00+5сз4886100 0.2 1029732
07:00+4сз4882100 0.3 1030781
10:00+4сз588296 0.1 1031793
13:00+4сз477798 0.1 1032778
16:00+4сз4776100 0.0 1033789
19:00+3сз4778100 0.0 1034738
22:00+3зсз3778100 0.0 1035442
28 февраля, вс
вс2801:00+3зсз3787100 0.1 1036557
04:00+3сз368498 0.1 1035568
07:00+2зсз368399 0.1 1035542
10:00+3сз357699 0.0 1034687
13:00+5з346887 0.0 1033682
16:00+7з36577 0.0 1032875
19:00+5зсз277718 0.0 1033495
22:00+4ссз3682100 0.0 1033534
1 марта, пн
пн101:00+3ссз258595 0.0 1034364
04:00+1ссз259124 0.0 1034224
07:00+1с239356 0.0 1035287
10:00+2сз1186100 0.0 1036226
13:00+5сз117299 0.0 1036417
16:00+7зюз11668 0.0 1035528
19:00+4ююз12774 0.0 103629
22:00+3ююв11830 0.0 103622
2 марта, вт
вт201:00+2ююз11860 0.0 103622
04:00+2ююз11890 0.0 103522
07:00+2ююз12890 0.0 103522
10:00+6юз13600 0.0 1035245
13:00+10зюз23450 0.0 1034509
16:00+11зюз23470 0.0 1033397
19:00+7юз12600 0.0 103327
22:00+5юз22670 0.0 103329
3 марта, ср
ср301:00+4ююз12780 0.0 103325
04:00+3ююз22810 0.0 103250
07:00+2ююз23750 0.0 103256
10:00+7юз25550 0.0 1031356
13:00+10юз35470 0.0 1029817
16:00+10зюз35530 0.0 1028833
19:00+7зюз23680 0.0 102884
22:00+6юз25780 0.0 1028144